Date,TemperatureHighF,TemperatureAvgF,TemperatureLowF,DewpointHighF,DewpointAvgF,DewpointLowF,HumidityHigh,HumidityAvg,HumidityLow,PressureMaxIn,PressureMinIn,WindSpeedMaxMPH,WindSpeedAvgMPH,GustSpeedMaxMPH,PrecipitationSumIn
2013-1-1,48.0,40.5,31.0,46.0,37.8,28.0,100,91,64,30.32,30.05,12,7,14,0.00
2013-1-2,46.0,33.7,24.0,34.0,29.7,24.0,99,86,62,30.40,30.24,7,2,9,0.00
2013-1-3,42.0,33.5,23.0,35.0,30.4,23.0,100,89,70,30.53,30.38,9,3,10,0.02
2013-1-4,43.0,35.2,32.0,43.0,35.2,32.0,100,100,100,30.54,30.39,8,1,10,0.09
2013-1-5,49.0,38.6,29.0,49.0,38.6,29.0,100,100,100,30.39,30.22,12,5,12,0.36
2013-1-6,51.0,36.0,29.0,51.0,35.9,29.0,100,100,98,30.50,30.31,8,2,9,0.36
2013-1-7,52.0,37.0,26.0,52.0,37.0,26.0,100,100,100,30.37,30.08,12,4,13,0.00
2013-1-8,48.0,43.6,35.0,48.0,43.6,35.0,100,100,100,30.09,29.94,8,5,9,0.34
2013-1-9,47.0,46.0,44.0,47.0,46.0,44.0,100,100,100,30.17,29.90,24,8,25,0.71
2013-1-10,56.0,46.3,39.0,56.0,46.3,39.0,100,100,100,30.06,29.94,14,7,14,0.70
2013-1-11,71.0,53.7,38.0,70.0,53.5,38.0,100,100,97,29.97,29.74,14,6,15,0.70
2013-1-12,56.0,48.8,33.0,56.0,45.1,29.0,100,88,65,30.06,29.78,15,7,15,0.00
2013-1-13,34.0,29.5,25.0,29.0,26.7,24.0,97,89,78,30.30,30.06,14,9,16,0.00
2013-1-17,59.0,44.9,30.0,38.0,34.0,28.0,94,68,45,30.55,30.43,10,2,11,0.00
2013-1-18,68.0,42.6,23.0,59.0,36.9,23.0,100,83,43,30.55,30.27,10,4,14,0.00
2013-1-19,72.0,47.4,31.0,50.0,37.6,30.0,97,74,34,30.28,30.10,15,4,19,0.00
2013-1-20,69.0,46.3,28.0,62.0,38.8,27.0,100,79,36,30.29,30.07,8,3,9,0.00
2013-1-21,56.0,41.6,29.0,41.0,34.6,28.0,96,78,55,30.33,30.18,15,4,15,0.00
2013-1-22,73.0,47.8,30.0,55.0,41.1,29.0,100,81,50,30.33,30.15,12,3,16,0.00
2013-1-23,78.0,53.4,34.0,75.0,52.9,34.0,100,98,90,30.31,30.13,13,4,14,0.01
2013-1-24,83.0,59.8,45.0,78.0,56.3,45.0,100,90,49,30.24,30.03,12,5,13,0.01
2013-1-25,66.0,55.8,47.0,64.0,51.7,40.0,100,87,55,30.20,30.06,19,6,19,0.00
2013-1-26,73.0,53.5,38.0,60.0,48.7,37.0,100,85,62,30.21,30.00,11,4,13,0.00
2013-1-27,80.0,62.7,53.0,77.0,61.7,53.0,100,97,90,30.03,29.87,13,6,14,0.00
2013-1-28,82.0,66.9,55.0,80.0,66.2,54.0,100,98,93,29.97,29.77,16,8,19,0.00
2013-1-29,74.0,61.3,48.0,68.0,49.7,27.0,98,69,36,29.86,29.62,24,14,34,0.00
2013-1-30,54.0,42.7,29.0,32.0,26.2,20.0,77,54,32,30.21,29.86,17,9,20,0.00
2013-1-31,70.0,54.5,28.0,35.0,31.5,21.0,81,45,26,30.28,30.11,15,7,16,0.00